Regional Weather Roundup
Issued by NWS Sterling, VA

Home | Current Version | Previous Version | Graphics & Text | Print | Product List | Glossary On
Versions: 1 2 3 4 5 6 7 8 9 10 11 12 13 14 15 16 17 18 19 20 21 22 23 24 25 26 27 28 29 30 31 32 33 34 35 36 37 38 39 40 41 42 43 44 45 46 47 48 49 50
000
ASUS41 KLWX 300410
RWRLWX

REGIONAL WEATHER ROUNDUP
NATIONAL WEATHER SERVICE BALTIMORE MD/WASHINGTON DC
1100 PM EST THU JAN 29 2015

Note: "FAIR" indicates few or no clouds below 12,000 feet
with no significant weather and/or obstructions to visibility.
 TC=TEMPERATURE CELSIUS

 * =Non NWS site. Station does not report precipitation (e.g. rain,
    snow, etc.), thunder, or fog.

DCZ001-MDZ009-015-VAZ040>042-051-053>054-300500-
WASHINGTON METRO

CITY           SKY/WX    TMP DP  RH WIND       PRES   REMARKS
WASHINGTON NAT CLOUDY    39  22  50 S9        29.95F
DULLES         CLOUDY    35  22  58 SW7       29.93F
ANDREWS AFB    CLOUDY    37  22  55 S10       29.93F
FT BELVOIR     CLOUDY    38  20  47 VRB5      29.95F
QUANTICO       CLOUDY    39  25  57 SW7       29.96F
COLLEGE PARK*  CLOUDY    34  30  86 CALM      29.95F
LEESBURG*      CLOUDY    34  30  86 S5        29.93F
MANASSAS*      CLOUDY    37  25  60 S5        29.94F
GAITHERSBURG*  CLOUDY    34  21  60 CALM      29.96F

$$

MDZ006>007-011-014-300500-
BALTIMORE METRO

CITY           SKY/WX    TMP DP  RH WIND       PRES   REMARKS
BWI AIRPORT    CLOUDY    34  24  67 CALM      29.94F
MD SCIENCE CTR   N/A     35  26  69 MISG      29.95F
MARTIN STATE   MOCLDY    36  30  80 SE8       29.98F
ANNAPOLIS      CLOUDY    36  28  73 S7        29.96F
FORT MEADE*    CLOUDY    32  27  80 CALM      29.97F

$$

MDZ012-015-019>023-300500-
MARYLAND EASTERN SHORE

CITY           SKY/WX    TMP DP  RH WIND       PRES   REMARKS
OCEAN CITY     CLOUDY    37  30  75 SW12      30.03F
SALISBURY      CLOUDY    40  23  50 S10       30.01F
BAY BRIDGE AP*   N/A     36  28  75 S13       29.97F WCI  27
CAMBRIDGE*     CLOUDY    37  28  70 S10G18    29.99S
EASTON*        CLOUDY    38  28  67 S14       30.01F

$$

MDZ017>025-300500-
SOUTHERN MARYLAND

CITY           SKY/WX    TMP DP  RH WIND       PRES   REMARKS
PATUXENT RIVER CLOUDY    39  20  46 S12G22    29.97F
ST INIGOES     CLOUDY    39  21  48 S12       29.99F
LEONARDTOWN*   CLOUDY    37  21  52 S12G17    29.99F

$$

MDZ003>005-300500-
NORTH CENTRAL MARYLAND

CITY           SKY/WX    TMP DP  RH WIND       PRES   REMARKS
FREDERICK*     CLOUDY    36  21  55 CALM      29.95F
HAGERSTOWN APT CLOUDY    30  24  78 N7        29.90S
WESTMINSTER*   CLOUDY    34  25  69 S9        29.90F WCI  26

$$

MDZ501>502-300500-
WESTERN MARYLAND

CITY           SKY/WX    TMP DP  RH WIND       PRES   REMARKS
OAKLAND*       CLOUDY    30 N/A N/A W21G32    29.82F HAZE    WCI  17
CUMBERLAND*    MOCLDY    30  30 100 CALM      29.95S

$$

VAZ025>031-300500-
SHENANDOAH VALLEY

CITY           SKY/WX    TMP DP  RH WIND       PRES   REMARKS
WINCHESTER*    CLOUDY    37  25  60 SW5       29.89S
FRONT ROYAL*   CLOUDY    37  28  70 CALM      29.88S
LURAY*         CLOUDY    41  30  65 SW6       29.89F
NEW MARKET*    CLOUDY    39  28  63 SW8       29.89F
STAUNTON*      CLOUDY    40  26  58 S3        29.93S
WAYNESBORO*    CLOUDY    39  26  60 CALM      29.90F

$$

WVZ021-048>050-054>055-300500-
EASTERN WEST VIRGINIA PANHANDLE

CITY           SKY/WX    TMP DP  RH WIND       PRES   REMARKS
MARTINSBURG    CLOUDY    34  25  69 NW6       29.91R
PETERSBURG*    CLOUDY    32  29  88 CALM      29.91R

$$

VAZ036>039-050-300500-
CENTRAL FOOTHILLS

CITY           SKY/WX    TMP DP  RH WIND       PRES   REMARKS
CHARLOTTESVILL MOCLDY    37  23  56 S10       29.93F
CULPEPER*      CLOUDY    41  25  52 S6        29.94F
ORANGE*        CLOUDY    39  25  56 S5        29.96S
GORDONSVILLE*  CLOUDY    39  23  53 SW7       29.94F
WARRENTON*     CLOUDY    40  29  63 SW6       29.93F

$$

VAZ055>057-300500-
NORTH AND CENTRAL PIEDMONT

CITY           SKY/WX    TMP DP  RH WIND       PRES   REMARKS
FREDERICKSBRG* CLOUDY    43  22  44 S14G20    29.94F
STAFFORD*      CLOUDY    41  19  40 CALM      29.98F

$$

NCZ024-NYZ072-PAZ021-071-VAZ022-071-300500-
OTHER REGIONAL OBSERVATIONS

CITY           SKY/WX    TMP DP  RH WIND       PRES   REMARKS
NEW YORK CITY  CLOUDY    35  23  61 VRB3      30.04F
PHILADELPHIA   CLOUDY    33  22  63 VRB6      30.01F
PITTSBURGH     LGT SNOW  33  29  85 W15       29.93R FOG     WCI  23
ROANOKE        CLOUDY    43  27  53 CALM      29.96F
RICHMOND       CLOUDY    40  21  46 S9        30.00F
RALEIGH        MOCLDY    38  24  57 S7        30.06F

$$

ANZ530>537-300500-
MARINE OBSERVATIONS

STATION/POSITION TIME  TEMP    WIND        PRES
                       AIR SEA DIR/SP/G
                 (UTC) (F)     (DEG/KT/KT) (MB)
THOMAS PT LIGHT  0400   37 35  170/ 17/ 19 1015.1F
BALT KEY BRIDGE  0400   35     130/  8/  9 1014.4F
COVE POINT       0400   38     210/ 17/ 19 1015.1F
LEWISETTA        0400   40 36  220/ 15/ 18 1015.3F
SOLOMONS ISLAND  0400      37                N/A
PINEY POINT      0400          200/  8/ 11   N/A

$$



USA.gov is the U.S. government's official web portal to all federal, state and local government web resources and services.